Location: Artiguedieu
(43.5000°N, 0.5454°E)
Time: 14:45:46
(UTC+00:00)

SR - Pass Details

Date: 06 August 2021
Orbit: 581 x 874 km, 66.7° (Epoch: 18 September)

Event Time Altitude Azimuth Distance (km) Brightness Sun altitude
Rises 03:00:22 0° 153° (SSE) 3,440 ? -17.5°
Reaches altitude 10° 03:04:39 10° 123° (ESE) 2,479 ? -17.0°
Maximum altitude 03:06:38 12° 103° (ESE) 2,332 ? -16.7°
Drops below altitude 10° 03:08:36 10° 83° (E) 2,441 ? -16.5°
Sets 03:12:42 0° 53° (NE) 3,318 ? -15.9°
